GALAXY 18 (G-18) (32951 NORAD) Tracking and Keplerian Element Data

This shows tracking and keplerian element data for the satellite.

Feedback or suggestion? Click here.




ElementValue
Catalog32951
NameGALAXY 18 (G-18)
Epoch Orbit4405
Epoch Day354.24157705
Epoch Year2025
RAAN53.4203
Inclination0.014
Eccentricity0.0002823
Argument of Perigee220.2424
Mean Anonmoly139.3742
Mean Motion1.00271014
Decay Rate4.9E-07
L11 32951U 08024A 25354.24157705 .00000049 00000+0 00000+0 0 9995
L22 32951 0.0140 53.4203 0002823 220.2424 139.3742 1.00271014 44053



Live tracking and technical data element details for GALAXY 18 (G-18) (NORAD 32951). GALAXY 18 (G-18) can be tracked NOW for your location showing map with azimuth and elevation plus other details from your city location.







IsCatalogInMostPopularTable: catalog: 32951, numindb: 532
Update: records affected: 1



GetName: 32951 GALAXY 18 (G-18)

Hit Count: updated at: Thu, 21 May 2026 11:53:08 GMT